Regional Weather Roundup
Issued by NWS

Home | Current Version | Previous Version | Graphics & Text | Print | Product List | Glossary On
Versions: 1 2 3 4 5 6 7 8 9 10 11 12 13 14 15 16 17 18 19 20 21 22 23 24 25 26 27 28 29 30 31 32 33 34 35 36 37 38 39 40 41 42 43 44 45 46 47 48 49 50
000
ASUS43 KLSX 251707
RWRMO

WEATHER SUMMARY FOR MISSOURI
NATIONAL WEATHER SERVICE SPRINGFIELD MO
1100 AM CST TUE NOV 25 2014

NOTE: "FAIR" INDICATES FEW OR NO CLOUDS BELOW 12,000 FEET WITH NO
       SIGNIFICANT WEATHER AND/OR OBSTRUCTIONS TO VISIBILITY.
       CURRENT SKY AND/OR WEATHER CONDITIONS ARE NOT AVAILABLE FOR
       CHILLICOTHE AND FARMINGTON.

MOZ001>031-035>038-043-044-053-054-251800-
...NORTHERN AND WESTERN MISSOURI...

CITY           SKY/WX    TMP DP  RH WIND       PRES   REMARKS
KANSAS CTY INT SUNNY     32  12  43 SW8       30.20F WCI  25
KANSAS C DTWN  SUNNY     35   9  33 W6        30.22F
LEE`S SUMMIT   SUNNY     33   8  35 W7        30.21F WCI  27
ST JOSEPH      SUNNY     32  11  41 SW7       30.21F WCI  26
CHILLICOTHE      N/A     30  15  53 VRB3      30.22S
KIRKSVILLE     SUNNY     28  18  66 W7        30.18S WCI  21

$$
MOZ066>068-077>081-088>096-101>105-251800-
...SOUTHWEST MISSOURI...

CITY           SKY/WX    TMP DP  RH WIND       PRES   REMARKS
SPRINGFIELD    SUNNY     36  17  46 W8        30.23S WCI  30
JOPLIN         SUNNY     36  17  46 W6        30.27S

$$
MOZ032>034-039>042-045>050-055>058-069>072-251800-
...CENTRAL MISSOURI...

CITY           SKY/WX    TMP DP  RH WIND       PRES   REMARKS
COLUMBIA       SUNNY     33  18  53 W5        30.20F WCI  29
JEFFERSON CITY SUNNY     33  18  53 CALM      30.23F
ROLLA          SUNNY     32  19  58 W7        30.18F WCI  26
SEDALIA        SUNNY     33  16  49 SW6       30.23S WCI  28
WHITEMAN AFB   SUNNY     33  14  45 W5        30.22S WCI  29
WARRENSBURG    SUNNY     34  14  44 SW7       30.23S WCI  28
OSAGE BEACH    SUNNY     36  16  44 SW6       30.22F

$$
MOZ051-052-059>065-251800-
...EAST CENTRAL MISSOURI...

CITY           SKY/WX    TMP DP  RH WIND       PRES   REMARKS
ST LOUIS INTL  MOSUNNY   36  22  56 VRB7      30.21F
SPIRIT OF STL  SUNNY     34  22  61 SW7       30.21F WCI  28
ST CHARLES     MOSUNNY   33  22  63 W10       30.21F WCI  25

$$
MOZ072>076-082>087-097>100-106>115-251800-
...SOUTH CENTRAL AND SOUTHEAST MISSOURI...

CITY           SKY/WX    TMP DP  RH WIND       PRES   REMARKS
CAPE GIRARDEAU MOSUNNY   39  24  55 NW8       30.23F
FARMINGTON     SUNNY     36  21  55 SW5       30.23R
POPLAR BLUFF   SUNNY     40  21  46 N12       30.23F
WEST PLAINS    SUNNY     38  18  44 NW6       30.24S

$$


USA.gov is the U.S. government's official web portal to all federal, state and local government web resources and services.